Location: Benalto
(52.3088°N, 114.2787°W)
Time: 11:21:02
(UTC+00:00)

N. Korean satellite - Pass Details

Date: 01 December 2021
Orbit: 447 x 491 km, 97.3° (Epoch: 21 January)

Event Time Altitude Azimuth Distance (km) Brightness Sun altitude
Rises 01:12:48 0° 215° (SW) 2,541 11.1 -15.1°
Reaches altitude 10° 01:16:00 10° 247° (WSW) 1,657 10.6 -15.6°
Maximum altitude 01:17:29 12° 272° (W) 1,525 10.2 -15.8°
Drops below altitude 10° 01:18:57 10° 297° (WNW) 1,651 10.0 -16.0°
Sets 01:22:08 0° 329° (NNW) 2,523 10.4 -16.5°
